When you browse on this site, cookies collect data to enhance your experience and personalize the content and advertising you see.
Visit our Privacy Policy to learn more. By continuing to use the site, you agree to this use of cookies and data.
  • In Portugal
  • List of Countries
  • For 7 days
  • Water Temperature
  • Weather Map
  • Weather Widgets
  • user-avatar
    Login

    Hourly Weather Newcastle

    Today, 2 June, Tuesday

    Time Temperature Precipitation Wind Pressure Humidity
    00:00 +8°C° 0 mm 5 mps 759 mmHg 67%
    01:00 +7°C° 0 mm 5 mps 759 mmHg 66%
    02:00 +7°C° 0 mm 5 mps 759 mmHg 67%
    03:00 +7°C° 0 mm 5 mps 759 mmHg 67%
    04:00 +7°C° 0 mm 5 mps 759 mmHg 68%
    05:00 +7°C° 0 mm 5 mps 759 mmHg 67%
    06:00 +7°C° 0 mm 6 mps 759 mmHg 67%
    07:00 +7°C° 0 mm 6 mps 760 mmHg 66%
    08:00 +8°C° 0 mm 5 mps 760 mmHg 63%
    09:00 +10°C° 0 mm 5 mps 760 mmHg 60%
    10:00 +12°C° 0 mm 5 mps 760 mmHg 57%
    11:00 +12°C° 0.5 mm 4 mps 760 mmHg 59%
    12:00 +13°C° 0.5 mm 4 mps 759 mmHg 62%
    13:00 +13°C° 0.5 mm 4 mps 759 mmHg 64%
    14:00 +13°C° 0.3 mm 5 mps 759 mmHg 62%
    15:00 +13°C° 0.3 mm 5 mps 760 mmHg 60%
    16:00 +13°C° 0.3 mm 6 mps 760 mmHg 58%
    17:00 +13°C° 0 mm 6 mps 761 mmHg 59%
    18:00 +11°C° 0 mm 6 mps 761 mmHg 60%
    19:00 +10°C° 0 mm 6 mps 762 mmHg 61%
    20:00 +9°C° 0 mm 6 mps 762 mmHg 63%
    21:00 +9°C° 0 mm 5 mps 763 mmHg 65%
    22:00 +8°C° 0 mm 5 mps 763 mmHg 67%
    23:00 +8°C° 0 mm 5 mps 763 mmHg 70%

    Tomorrow, 3 June, Wednesday

    Time Temperature Precipitation Wind Pressure Humidity
    00:00 +7°C° 0 mm 5 mps 763 mmHg 72%
    01:00 +7°C° 0 mm 4 mps 763 mmHg 74%
    02:00 +7°C° 0 mm 5 mps 763 mmHg 76%
    03:00 +7°C° 0 mm 5 mps 763 mmHg 78%
    04:00 +7°C° 0 mm 5 mps 763 mmHg 79%
    05:00 +7°C° 0 mm 5 mps 764 mmHg 80%
    06:00 +7°C° 0 mm 5 mps 764 mmHg 82%
    07:00 +7°C° 0 mm 5 mps 765 mmHg 83%
    08:00 +9°C° 0 mm 5 mps 765 mmHg 76%
    09:00 +12°C° 0 mm 4 mps 766 mmHg 70%
    10:00 +13°C° 0 mm 4 mps 766 mmHg 63%
    11:00 +14°C° 0 mm 4 mps 766 mmHg 59%
    12:00 +17°C° 0 mm 4 mps 766 mmHg 54%
    13:00 +17°C° 0 mm 5 mps 766 mmHg 50%
    14:00 +16°C° 0 mm 5 mps 766 mmHg 53%
    15:00 +15°C° 0 mm 6 mps 767 mmHg 56%
    16:00 +15°C° 0 mm 7 mps 767 mmHg 59%
    17:00 +14°C° 0 mm 7 mps 768 mmHg 63%
    18:00 +12°C° 0 mm 7 mps 768 mmHg 67%
    19:00 +10°C° 0 mm 6 mps 769 mmHg 71%
    20:00 +10°C° 0.1 mm 6 mps 770 mmHg 73%
    21:00 +10°C° 0.1 mm 6 mps 770 mmHg 75%
    22:00 +10°C° 0.1 mm 6 mps 771 mmHg 78%
    23:00 +10°C° 0.2 mm 6 mps 771 mmHg 78%

    Day after tomorrow, 4 June, Thursday

    Time Temperature Precipitation Wind Pressure Humidity
    00:00 +10°C° 0.2 mm 5 mps 771 mmHg 78%
    01:00 +10°C° 0.2 mm 5 mps 771 mmHg 78%
    02:00 +9°C° 0.1 mm 5 mps 771 mmHg 80%
    03:00 +8°C° 0.1 mm 5 mps 771 mmHg 82%
    04:00 +7°C° 0.1 mm 5 mps 771 mmHg 84%
    05:00 +7°C° 0.1 mm 5 mps 772 mmHg 84%
    06:00 +7°C° 0.1 mm 5 mps 772 mmHg 84%
    07:00 +6°C° 0.1 mm 4 mps 772 mmHg 84%
    08:00 +8°C° 0.1 mm 4 mps 773 mmHg 80%
    09:00 +10°C° 0.1 mm 4 mps 773 mmHg 77%
    10:00 +11°C° 0.1 mm 4 mps 773 mmHg 73%
    11:00 +12°C° 0.2 mm 4 mps 773 mmHg 73%
    12:00 +13°C° 0.2 mm 4 mps 772 mmHg 72%
    13:00 +14°C° 0.2 mm 4 mps 772 mmHg 72%
    14:00 +14°C° 0.3 mm 4 mps 771 mmHg 75%
    15:00 +14°C° 0.3 mm 4 mps 771 mmHg 77%
    16:00 +14°C° 0.3 mm 4 mps 771 mmHg 79%
    17:00 +13°C° 0.2 mm 4 mps 772 mmHg 81%
    18:00 +13°C° 0.2 mm 4 mps 772 mmHg 83%
    19:00 +12°C° 0.2 mm 4 mps 772 mmHg 86%
    20:00 +12°C° 0.1 mm 3 mps 773 mmHg 87%
    21:00 +11°C° 0.1 mm 3 mps 773 mmHg 89%
    22:00 +11°C° 0.1 mm 3 mps 773 mmHg 90%
    23:00 +10°C° 0 mm 3 mps 773 mmHg 91%

    5 June, Friday

    Time Temperature Precipitation Wind Pressure Humidity
    00:00 +9°C° 0 mm 3 mps 772 mmHg 92%
    01:00 +9°C° 0 mm 3 mps 772 mmHg 92%
    02:00 +8°C° 0 mm 3 mps 772 mmHg 94%
    03:00 +8°C° 0 mm 3 mps 771 mmHg 95%
    04:00 +7°C° 0 mm 2 mps 771 mmHg 96%
    05:00 +7°C° 0 mm 2 mps 771 mmHg 96%
    06:00 +7°C° 0 mm 2 mps 772 mmHg 96%
    07:00 +7°C° 0 mm 2 mps 772 mmHg 96%
    08:00 +9°C° 0 mm 2 mps 772 mmHg 89%
    09:00 +12°C° 0 mm 2 mps 772 mmHg 82%
    10:00 +14°C° 0 mm 2 mps 772 mmHg 74%
    11:00 +15°C° 0 mm 1 mps 771 mmHg 66%
    12:00 +18°C° 0 mm 1 mps 770 mmHg 58%
    13:00 +19°C° 0 mm 1 mps 770 mmHg 50%
    14:00 +19°C° 0 mm 1 mps 769 mmHg 54%
    15:00 +18°C° 0 mm 1 mps 769 mmHg 58%
    16:00 +16°C° 0 mm 2 mps 769 mmHg 62%
    17:00 +15°C° 0 mm 2 mps 769 mmHg 68%
    18:00 +13°C° 0 mm 2 mps 769 mmHg 74%
    19:00 +10°C° 0 mm 2 mps 770 mmHg 80%
    20:00 +10°C° 0 mm 2 mps 770 mmHg 82%
    21:00 +9°C° 0 mm 2 mps 770 mmHg 85%
    22:00 +9°C° 0 mm 2 mps 770 mmHg 88%
    23:00 +9°C° 0 mm 2 mps 770 mmHg 89%

    6 June, Saturday

    Time Temperature Precipitation Wind Pressure Humidity
    00:00 +9°C° 0 mm 1 mps 769 mmHg 90%
    01:00 +9°C° 0 mm 1 mps 769 mmHg 92%
    02:00 +9°C° 0 mm 1 mps 769 mmHg 92%
    03:00 +8°C° 0 mm 1 mps 769 mmHg 93%
    04:00 +7°C° 0 mm 2 mps 768 mmHg 93%
    05:00 +7°C° 0 mm 2 mps 769 mmHg 93%
    06:00 +7°C° 0 mm 2 mps 769 mmHg 93%
    07:00 +6°C° 0 mm 2 mps 769 mmHg 94%
    08:00 +9°C° 0 mm 2 mps 769 mmHg 83%
    09:00 +12°C° 0 mm 2 mps 769 mmHg 73%
    10:00 +14°C° 0 mm 2 mps 769 mmHg 62%
    11:00 +16°C° 0 mm 1 mps 768 mmHg 59%
    12:00 +18°C° 0 mm 1 mps 767 mmHg 55%
    13:00 +20°C° 0 mm 1 mps 766 mmHg 52%
    14:00 +19°C° 0 mm 1 mps 766 mmHg 56%
    15:00 +18°C° 0 mm 1 mps 766 mmHg 61%
    16:00 +16°C° 0 mm 2 mps 766 mmHg 66%
    17:00 +15°C° 0 mm 2 mps 766 mmHg 74%
    18:00 +13°C° 0 mm 2 mps 766 mmHg 83%
    19:00 +11°C° 0 mm 3 mps 767 mmHg 91%
    20:00 +10°C° 0 mm 3 mps 767 mmHg 92%
    21:00 +10°C° 0 mm 3 mps 766 mmHg 93%
    22:00 +10°C° 0 mm 2 mps 766 mmHg 94%
    23:00 +9°C° 0 mm 2 mps 766 mmHg 94%

    7 June, Sunday

    Time Temperature Precipitation Wind Pressure Humidity
    00:00 +9°C° 0 mm 2 mps 766 mmHg 94%
    01:00 +9°C° 0 mm 2 mps 766 mmHg 93%
    02:00 +9°C° 0 mm 3 mps 766 mmHg 92%
    03:00 +8°C° 0 mm 3 mps 765 mmHg 90%
    04:00 +8°C° 0 mm 3 mps 765 mmHg 88%
    05:00 +8°C° 0 mm 3 mps 765 mmHg 88%
    06:00 +8°C° 0 mm 3 mps 766 mmHg 87%
    07:00 +7°C° 0 mm 3 mps 766 mmHg 87%
    08:00 +9°C° 0 mm 3 mps 766 mmHg 78%
    09:00 +11°C° 0 mm 3 mps 766 mmHg 69%
    10:00 +13°C° 0 mm 3 mps 766 mmHg 60%
    11:00 +14°C° 0 mm 4 mps 765 mmHg 56%
    12:00 +15°C° 0 mm 4 mps 765 mmHg 52%
    13:00 +17°C° 0 mm 4 mps 765 mmHg 48%
    14:00 +16°C° 0.3 mm 5 mps 765 mmHg 55%
    15:00 +15°C° 0.3 mm 5 mps 765 mmHg 62%
    16:00 +14°C° 0.3 mm 6 mps 765 mmHg 69%
    17:00 +13°C° 0.3 mm 6 mps 766 mmHg 74%
    18:00 +12°C° 0.3 mm 5 mps 767 mmHg 79%
    19:00 +10°C° 0.3 mm 5 mps 767 mmHg 84%
    20:00 +9°C° 0.1 mm 5 mps 768 mmHg 84%
    21:00 +9°C° 0.1 mm 5 mps 768 mmHg 85%
    22:00 +8°C° 0.1 mm 5 mps 768 mmHg 86%
    23:00 +8°C° 0.2 mm 5 mps 768 mmHg 86%
    Show more